TIROS 2 DEB *, 5922

Orbit data source: Space-Track

TIROS 2 DEB *, 5922 is space debris in LEO originally from a launch on Wed, 23 Nov 1960 UTC launched from the Air Force Eastern Test Range (AFETR). Debris objects in space refer to the collection of defunct objects orbiting the Earth. Examples of debris include non-operational satellites, rocket bodies, and fragments generated from explosions, collisions, or faulty payload assembly.

Loading next visibility...
Identifier
5922, 1960-016E
Orbit
LEO
Country
Flag of USUS
Related business
Manufacturer
Unknown
Mission
Spacecraft
Bus & Motor
Unknown
Mass
Unknown
Launch date (UTC)
1960-11-23 (65 years ago)
Launch vehicle
Unknown
Launch site
Air Force Eastern Test Range (AFETR)
Object type
Payload
Rocket body
Debris
Shape & HBR
Unknown
Radar Cross Section
Small (<0.1 m²)

Expand to show TLE details & history
Last TLE update: 1 day ago

TLE from 1 day ago
0 TIROS 2 DEB *
1 05922U 60016E   25260.20239242 -.00000074  00000-0  63034-4 0  9992
2 05922  47.0306 187.7822 0040835 359.8094 143.8305 13.70025424714018
Epoch: 2025-09-17T04:51Z
TLE epoch observation values (Epoch: 2025-09-17T04:51:26.705Z)
Latitude
25.60741°
Longitude
-87.82978°
Altitude
1,024.253 km
Speed
7.331 km/s
True Right ascension
22h 45m 39s
True Declination
25° 28' 42"
Sunlit
Object was in full shadow at epoch
Visualization orbit readout
Latitude
Unknown
Longitude
Unknown
Altitude
Unknown
Speed
Unknown
Apparent Right ascension
Unknown
Apparent Declination
Unknown
Sunlit
N/A
Visualization observer readout
Local Sidereal Time
04:01:58
Azimuth
Unknown
Elevation
Unknown
Doppler factor
Unknown
Orbital elements
Apogee altitude
1,030.791 km
Perigee altitude
970.528 km
Semi-major axis
7,378.797 km
Eccentricity
0.00408
Inclination
47.0306°
RAAN
187.7822°
Arg. of periapsis
359.8094°
True anomaly
144.10553°
Mean anomaly
143.8305°
Eccentric anomaly
143.96813°
Mean motion
3.42425 °/min
Orbital period
105.13 mins
BSTAR
0.000063034
Loading maneuver chart data...
Computing Atmospheric mass density...
Loading historical data...
Loading historical data...
Loading historical data...
Loading historical data...
Loading historical data...
Loading historical data...
Loading historical data...
Other satellites on launch #16 in the year 1960 (1960-11-23 UTC)

Documentation

Showing up to 5 results
|